Regional Weather Roundup
Issued by NWS

Home | Current Version | Previous Version | Text Only | Print | Product List | Glossary Off
Versions: 1 2 3 4 5 6 7 8 9 10 11 12 13 14 15 16 17 18 19 20 21 22 23 24 25 26 27 28 29 30 31 32 33 34 35 36 37 38 39 40 41 42 43 44 45 46 47 48 49 50

000
ASUS43 KMKX 302211
RWRWI

WISCONSIN REGIONAL WEATHER ROUNDUP
NATIONAL WEATHER SERVICE MILWAUKEE/SULLIVAN WI
500 PM CDT TUE AUG 30 2016

NOTE: "FAIR" INDICATES FEW OR NO CLOUDS BELOW 12,000 FEET WITH NO
SIGNIFICANT WEATHER AND/OR OBSTRUCTIONS TO VISIBILITY.

WIZ001-002-006>008-014>016-023>028-302300-
NORTHWEST WISCONSIN

CITY           SKY/WX    TMP DP  RH WIND       PRES   REMARKS
SUPERIOR ARPT  SUNNY     76  53  44 NW8       30.13S
ASHLAND        SUNNY     75  54  47 NW8       30.14S
HAYWARD        SUNNY     76  50  40 N7        30.15S
SIREN          SUNNY     76  53  43 NW8       30.15S
CUMBERLAND     SUNNY     73  54  49 NW10      30.15F
RICE LAKE      SUNNY     76  55  47 NW6       30.16S
CHETEK         NOT AVBL
LADYSMITH      CLOUDY    77  58  51 NW9       30.15S
EAU CLAIRE     PTSUNNY   79  61  53 NW8       30.11F HX  80
MENOMONIE      PTSUNNY   78  59  51 NW7       30.13S
NEW RICHMOND   SUNNY     77  54  44 N8        30.16S
OSCEOLA        SUNNY     77  55  46 NW7       30.18S
$$

WIZ003>005-009-010-017-018-302300-
NORTH CENTRAL WISCONSIN

CITY           SKY/WX    TMP DP  RH WIND       PRES   REMARKS
MANITOWISH WTR NOT AVBL
ARBOR VITAE    SUNNY     77  58  51 N9        30.13S
WOODRUFF       SUNNY     77  58  51 N9        30.13S
RHINELANDER    MOSUNNY   75  59  57 NW7       30.12S
EAGLE RIVER    MOSUNNY   75  53  47 NW10      30.11S
LAND O LAKES   SUNNY     74  51  44 NW8G16    30.13S
PHILLIPS       SUNNY     74  57  54 NW9       30.13S
TOMAHAWK       MOSUNNY   74  57  55 NW5       30.12S
MEDFORD        MOSUNNY   74  60  62 NW10      30.12S
MERRILL        MOSUNNY   77  63  61 NW8       30.10S
$$

WIZ029-030-035-036-043>047-302300-
CENTRAL WISCONSIN

CITY           SKY/WX    TMP DP  RH WIND       PRES   REMARKS
WAUSAU         MOSUNNY   80  61  52 NW10      30.07S HX  81
MOSINEE        MOSUNNY   79  66  65 NW8       30.09S HX  81
MARSHFIELD     MOSUNNY   80  63  55 NW13      30.09S HX  81
STEVENS POINT  MOSUNNY   78  65  63 CALM      30.08S HX  80
WAUPACA        MOSUNNY   86  62  44 W7        30.05S HX  86
WAUTOMA        CLOUDY    83  65  54 W8        30.06S HX  85
WISC RAPIDS    CLOUDY    83  65  54 W9        30.08F HX  85
CAMP DOUGLAS   PTSUNNY   81  66  61 W12       30.08S HX  83
$$

WIZ011>013-019>022-031-037>040-048>050-302300-
NORTHEAST WISCONSIN

CITY           SKY/WX    TMP DP  RH WIND       PRES   REMARKS
ANTIGO         CLOUDY    75  62  64 N12       30.09S
SHAWANO        MOSUNNY   85  67  54 N6        30.03S HX  88
OCONTO         NOT AVBL
STURGEON BAY   MOSUNNY   81  69  67 NW3       30.03F HX  84
GREEN BAY      CLOUDY    84  66  54 W8        30.02F HX  86
MANITOWOC      MOSUNNY   79  69  71 E3        30.03S HX  81
APPLETON       PTSUNNY   82  59  44 W7        30.04S HX  82
CLINTONVILLE   CLOUDY    84  63  48 W10       30.03S HX  85
OSHKOSH        CLOUDY    83  65  54 W6        30.05R HX  85
$$

WIZ032>034-041-042-053>061-302300-
SOUTHWEST WISCONSIN

CITY           SKY/WX    TMP DP  RH WIND       PRES   REMARKS
LA CROSSE      CLOUDY    82  67  60 NW9       30.08F HX  84
SPARTA         PTSUNNY   80  67  63 NW7       30.09F HX  82
VIROQUA        CLOUDY    79  66  65 NW7       30.11F HX  81
BOSCOBEL       CLOUDY    83  68  60 N7        30.08S HX  86
PRAIRIE DU CHI CLOUDY    80  66  62 NW7       30.08S HX  82
PLATTEVILLE    PTSUNNY   79  74  85 NW8       30.09S HX  83
$$

WIZ056-057-062-063-064-067-068-302300-
SOUTH CENTRAL WISCONSIN

CITY           SKY/WX    TMP DP  RH WIND       PRES   REMARKS
REEDSBURG      NOT AVBL
BARABOO/DELLS  MOSUNNY   81  64  56 NW7       30.08S HX  82
LONE ROCK      CLOUDY    82  68  62 NW7       30.08R HX  85
MINERAL POINT  CLOUDY    81  70  69 NW5       30.10R HX  84
MADISON        CLOUDY    82  68  62 CALM      30.07S HX  85
MIDDLETON      PTSUNNY   83  68  60 NW6       30.08S HX  85
WATERTOWN      PTSUNNY   78  73  83 SW6       30.07S HX  81
MONROE         LGT RAIN  70  68  94 SW9       30.10S
JANESVILLE     NOT AVBL
$$

WIZ051-052-058>065-066-070>072-302300-
SOUTHEAST WISCONSIN

CITY           SKY/WX    TMP DP  RH WIND       PRES   REMARKS
MILWAUKEE      CLOUDY    75  69  81 SW6       30.06F
WAUKESHA       PTSUNNY   73  66  78 S3        30.08F
MILWAUKEE/TIMM LGT RAIN  73  63  68 W6        30.07F
RACINE         CLOUDY    72  69  90 W6        30.08F
BURLINGTON     PTSUNNY   69  68  96 CALM      30.09S
KENOSHA        LGT RAIN  72  69  90 W5        30.07F FOG
FOND DU LAC    PTSUNNY   83  64  52 W6        30.06R HX  84
SHEBOYGAN      PTSUNNY   82  65  56 W6        30.04F HX  84
WEST BEND      CLOUDY    75  66  73 SW6       30.06F
JUNEAU         PTSUNNY   82  65  57 W5        30.07F HX  83
$$

LSZ147-162-302300-
LAKE SUPERIOR

STATION/POSITION TIME  TEMP    WIND        PRES    WAVE
                       AIR SEA DIR/SP/G            HT/PER
                 (UTC) (F)     (DEG/KT/KT) (MB)    (FT/S)
W MID LAKE BUOY  2150   69 68  250/ 12/ 14 1019.1F   1
DEVILS ISLAND    2100   69     230/  5/  7 1020.2F
PORT WING        2100   74     250/  7/ 11 1020.3F
SAXON HARBOR     2100   71      30/  2/  3 1020.7S
$$

LMZ867-665-643>646-302300-
LAKE MICHIGAN

STATION/POSITION TIME  TEMP    WIND        PRES    WAVE
                       AIR SEA DIR/SP/G            HT/PER
                 (UTC) (F)     (DEG/KT/KT) (MB)    (FT/S)
CHAMBERS ISLAND  2100   81     170/  3/  8 1016.3S
S GREEN BAY BUOY 2100   78 75  170/  4/  4 1016.2F
N MID LAKE BUOY  2150   73 73  210/  8/ 10 1015.6F   1
NORTHPORT PIER   2100   78     150/  4/  6 1016.3
ALGOMA LAKESHORE 2100          220/ 11/ 12   N/A
KEWAUNEE LAKESHO 2100   70     180/  9/ 10 1016.6F
SHEBOYGAN LAKESH 2200   74     180/  9/  9 1016.5F
PORT WASHINGTON  2140   79     250/  5/  8 1018.3S
ATWATER BUOY     2100   68     260/  6/  6   N/A
MILWAUKEE LAKESH 2110   74     230/  4/  4   N/A
S MID LAKE BUOY  2150   75 76  250/ 10/ 12 1017.0F   1/ 3
KENOSHA   LAKESH 2100   71     280/  5/  7 1017.9F
$$

TC  - TEMPERATURE IN CELSIUS
VSB - VISIBILITY IN STATUTE MILES
WCI - WIND CHILL INDEX
HX  - HEAT INDEX





USA.gov is the U.S. government's official web portal to all federal, state and local government web resources and services.